Welcome to the New NWS' Forecast!
Most changes are behind the scenes, but click here for differences you might notice.
Latest weather observations around

Roanoke, Roanoke Regional Airport (KROA)

Using English Units (Switch to International System of Units)
Date/ Time (EDT) Wind (mph) Vis. (mi) Weather Sky Cond. Temp (°F) Rel. Humidity Wind Chill (°F) Heat Index (°F) Pressure Precip. (in)
Air Dwpt 6 hour Altimeter (inHg) Sea level (inHg) 1 hr 3 hr 6 hr
Max Min
Aug 15 15:54 WSW 5 10 Mostly Cloudy SCT060 BKN075 85 61     45%   85 30.11 30.08      
Aug 15 14:54 3 10 Mostly Cloudy SCT045 BKN300 85 60     43%   85 30.12 30.08      
Aug 15 13:54 W 6 10 Partly Cloudy FEW045 SCT300 84 62     48%   85 30.12 30.09      
Aug 15 12:54 6 10 Partly Cloudy FEW038 SCT300 84 62     48%   85 30.13 30.09      
Aug 15 11:54 NE 6 10 Partly Cloudy SCT300 84 65     53%   86 30.14 30.1      
Aug 15 10:54 NW 3 10 Partly Cloudy SCT280 78 64     62%   79 30.15 30.12      
Aug 15 09:54 Calm 10 Mostly Clear FEW300 75 64     69%   75 30.15 30.11      
Aug 15 08:54 Calm 10 Clear CLR 73 62     68%   73 30.14 30.1      
Aug 15 07:54 E 3 10 Clear CLR 68 62     81%     30.12 30.08      
Aug 15 06:54 6 10 Clear CLR 66 60     81%     30.11 30.07      
Aug 15 05:54 N 5 10 Clear CLR 65 61     87%     30.09 30.06      
Aug 15 04:54 N 3 10 Clear CLR 65 61     87%     30.08 30.05      
Aug 15 03:54 Calm 10 Clear CLR 65 61     87%     30.08 30.04      
Aug 15 02:54 NW 3 10 Clear CLR 66 61     84%     30.08 30.05      
Aug 15 01:54 NNW 7 10 Clear CLR 65 61     87%     30.09 30.05      
Aug 15 00:54 W 3 10 Clear CLR 67 61     81%     30.09 30.06      
Aug 14 23:54 WNW 3 10 Clear CLR 68 62     81%     30.1 30.06      
Aug 14 22:54 NW 7 10 Clear CLR 69 62     78%     30.08 30.04      
Aug 14 21:54 W 3 10 Clear CLR 72 62     71%   72 30.07 30.03      
Aug 14 20:54 NW 5 10 Clear CLR 74 62     66%   74 30.04 30      
Aug 14 19:54 NW 5 10 Mostly Clear FEW095 78 62     58%   78 30.02 29.99      
Aug 14 18:54 W 7 10 Partly Cloudy SCT095 81 61     51%   82 30.01 29.98      
Aug 14 17:54 NW 10 10 Partly Cloudy FEW055 SCT080 83 60     46%   83 30.01 29.97      
Aug 14 16:54 W 9 10 Partly Cloudy SCT080 83 62     49%   84 30 29.97      
Aug 14 15:54 WSW 5 10 Partly Cloudy FEW055 SCT070 SCT100 84 63     49%   85 30.01 29.97      
Aug 14 14:54 W 7 10 Mostly Cloudy BKN055 BKN110 82 61     49%   83 30.02 29.99      
Aug 14 13:54 NNW 7 10 Partly Cloudy FEW050 SCT065 83 62     49%   84 30.04 30.01      
Aug 14 12:54 5 10 Partly Cloudy SCT040 SCT065 82 63     53%   83 30.05 30.02      
Aug 14 11:54 NW 6 10 Mostly Cloudy SCT034 SCT044 BKN060 79 64     60%   79 30.07 30.03      
Aug 14 10:54 SW 5 10 Partly Cloudy SCT030 SCT200 78 64     62%   79 30.07 30.04      
Aug 14 08:54 Calm 10 Mostly Clear FEW200 69 62     78%     30.07 30.04      
Aug 14 07:54 SSE 5 10 Clear CLR 65 61     87%     30.06 30.03      
Aug 14 06:54 NNE 8 10 Clear CLR 63 60     90%     30.05 30.02      
Aug 14 05:54 NE 5 10 Clear CLR 63 60     90%     30.03 30      
Aug 14 04:54 Calm 10 Clear CLR 63 60     90%     30.01 29.98      
Aug 14 03:54 Calm 10 Clear CLR 64 61     90%     30.03 29.99      
Aug 14 02:54 3 10 Clear CLR 63 61     93%     30.04 30.01      
Aug 14 01:54 NW 3 10 Clear CLR 64 61     90%     30.06 30.02      
Aug 13 23:54 NW 3 10 Clear CLR 66 62     87%     30.07 30.03      
Aug 13 22:54 WSW 3 10 Clear CLR 67 61     81%     30.06 30.03      
Aug 13 21:54 NNW 3 10 Clear CLR 67 61     81%     30.06 30.03      
Aug 13 20:54 NE 7 10 Mostly Clear FEW090 69 61     75%     30.06 30.03      
Aug 13 19:54 NE 8 10 Partly Cloudy FEW085 SCT200 71 60     68%   71 30.04 30.01      
Aug 13 18:54 N 6 10 Mostly Cloudy FEW065 SCT095 BKN200 75 60     60%   75 30.03 30      
Aug 13 18:18 ENE 6 10 Mostly Cloudy SCT065 BKN080 BKN095 74 60     62%   74 30.03        
Aug 13 17:54   10 Thunderstorms BKN060 BKN070 BKN095 75 60     60%   75 30.03 30      
Aug 13 16:54 E 6 10 Thunderstorms BKN060 BKN080 BKN090 80 64     58%   82 30 29.96      
Aug 13 16:25 NNW 3 10 Thunderstorms BKN060 BKN080 BKN090 82 63     53%   83 29.99        
Aug 13 15:54 NNW 6 10 Mostly Cloudy BKN050 BKN070 BKN085 81 63     54%   82 29.99 29.96      
Aug 13 14:54 3 10 Mostly Cloudy SCT050 BKN070 BKN085 84 61     46%   84 30.01 29.97      
Aug 13 13:54 NNE 5 10 Mostly Clear FEW050 83 63     51%   84 30.04 30.01      
Aug 13 12:54 N 5 10 Partly Cloudy FEW044 SCT055 82 63     53%   83 30.06 30.03      
Aug 13 11:54 3 10 Mostly Clear FEW035 81 66     61%   83 30.08 30.04      
Aug 13 10:54 5 10 Mostly Clear FEW017 77 67     71%   78 30.08 30.05      
Aug 13 08:11 Calm 10 Mostly Cloudy BKN010 BKN014 69 65     87%     30.09        
Aug 13 07:54 ENE 5 10 Partly Cloudy FEW008 SCT021 67 65     93%     30.08 30.05      
Aug 13 06:54 WNW 5 10 Mostly Clear FEW018 65 64     97%     30.07 30.04      
Aug 13 03:26 Calm 10 Mostly Cloudy BKN039 67 65     93%     30.07        
Aug 13 02:54 NNW 3 10 Mostly Cloudy BKN019 BKN042 67 65     93%     30.08 30.05      
Aug 13 01:54 Calm 10 Cloudy FEW031 BKN038 OVC048 69 66     90%     30.09 30.06     0
Aug 13 00:35 SE 9 10 Light Rain OVC009 69 67     93%     30.12   0    
Aug 12 23:54 Calm 10 Cloudy BKN012 OVC020 69 66     90%     30.12 30.08      
Aug 12 23:26 Calm 10 Cloudy BKN014 OVC035 69 66     90%     30.11        
Aug 12 22:01 E 3 10 Partly Cloudy SCT018 70 64     81%     30.08        
Aug 12 21:54 NNE 7 10 Mostly Cloudy SCT018 BKN024 71 64     79%   72 30.08 30.04      
Aug 12 21:47 NNE 7 10 Mostly Cloudy BKN018 71 64     79%   72 30.08        
Aug 12 19:54 NE 3 10 Mostly Clear FEW110 75 69     82%   76   30.02     0
Aug 12 18:54 Calm 10 Mostly Cloudy FEW100 BKN200 73 68     84%   74 30.04 30.01 0    
Notice The following observation data may not be complete
Aug 12 18:44   10 Partly Cloudy FEW050 SCT100 SCT110          %         0    
Aug 12 17:54 W 7 10 Mostly Cloudy FEW015 SCT110 BKN180 75 69     82%   76 30.06 30.02      
Aug 12 16:54 E 5 10 Mostly Cloudy FEW060 SCT120 BKN180 74 69     85%   75 30.06 30.02   0  
Aug 12 14:36 WNW 10 5 Light Rain and Fog/Mist FEW055 BKN095 OVC110 69 66     90%     30.07   0    
Aug 12 14:14 WNW 10 3 Thunderstorms and Rain and Fog/Mist BKN031 BKN048 OVC085 68 66     93%     30.08   0    
Aug 12 14:08 WNW 15 3 Heavy Rain and Fog/Mist BKN029 BKN049 OVC070 69 65     87%     30.07   0    
Aug 12 14:03 NW 10 0.5 Heavy Rain and Fog BKN022 BKN030 OVC070 67 65     93%     30.07   0    
Aug 12 13:54 NW 13 1 Thunderstorms and Rain and Fog/Mist BKN024 BKN030 OVC070 69 65     87%     30.1 30.06 0   0
Aug 12 13:43 N 9 0.5 Thunderstorms and Rain and Fog/Mist SCT020 BKN028 OVC033 68 65     90%     30.1   0    
Aug 12 13:33 W 10 10 Thunderstorms and Rain FEW020 OVC029 74 65     74%   74 30.1   0    
May 15 14:54 S 11 10 Mostly Cloudy FEW042 BKN100 BKN160 88 68     52%   92 29.97 29.93      
May 14 23:54 ENE 3 10 Cloudy OVC070 75 63     66%   75 30.04 30      
May 14 18:54 S 11 10 Partly Cloudy FEW070 SCT100 SCT250 88 63     43%   89 29.97 29.93      
May 14 12:54 S 5 10 Mostly Clear FEW048 88 63     43%   89 30.06 30.02      
May 14 11:54 5 10 Mostly Clear FEW048 86 62     45%   87 30.07 30.03      
May 13 17:54 WSW 9 10 Clear CLR 91 54     29%   89 29.99 29.94      
May 12 17:54 WSW 6 10 Mostly Cloudy FEW080 BKN160 91 56     31%   89 30.03 29.98      
May 12 07:54 W 3 10 Partly Cloudy SCT250 71 61     70%   71 30.15 30.11      
May 12 06:20 Calm 10 Partly Cloudy SCT250 67 58     73%     30.12        
May 11 14:54 6 10 Partly Cloudy SCT060 86 55     35%   84 30.04 30      
Jun 12 02:54 WNW 5 10 Clear CLR 71 59     66%   71 30.16 30.12      
Jun 10 01:54 Calm 10 Clear CLR 59 54     83%     30.07 30.04      
Jun 09 11:54 NW 15 10 Partly Cloudy SCT043 SCT050 74 51     45%   73 29.99 29.96      
Jun 09 02:54 W 8 10 Mostly Cloudy BKN090 59 56     90%     29.9 29.88      
Jun 09 00:54 W 6 10 Cloudy OVC090 59 57     93%     29.91 29.89      
Jun 08 09:54 ENE 7 10 Mostly Cloudy BKN028 BKN035 61 52     72%     30.01 29.99      
Jun 07 22:54 NE 7 10 Mostly Cloudy FEW027 BKN041 BKN048 62 53     72%     30.04 30.02      
Jun 07 11:54 NE 8 10 Partly Cloudy SCT044 71 50     47%   70 29.96 29.93      
Jun 06 07:54 6 10 Partly Cloudy FEW040 SCT280 68 60     76%     29.83 29.8      
Jun 05 15:54 WSW 6 10 Light Rain FEW013 OVC060 68 65     90%     29.81 29.78 0